Location: Ku?niki
(51.4449°N, 17.8974°E)
Time: 07:40:08
(UTC+00:00)

EO-79 - Pass Details

Date: 06 July 2022
Orbit: 588 x 603 km, 98.0° (Epoch: 09 August)

Event Time Altitude Azimuth Distance (km) Brightness Sun altitude
Rises 01:44:56 0° 5° (N) 2,861 ? -6.8°
Reaches altitude 10° 01:47:22 10° 353° (N) 1,955 ? -6.6°
Maximum altitude 01:50:53 26° 297° (WNW) 1,197 ? -6.2°
Drops below altitude 10° 01:54:25 10° 241° (WSW) 1,949 ? -5.9°
Enters shadow 01:55:13 - 235° (SW) 2,237 ? -5.8°
